Bookmark and Share
Track history (hours):
 

Bounty (United States)

Replica of original HMS Bounty, built in 1960 for the MGM movie version of Mutiny on the Bounty, which starred Marlon Brando. Overhauled 2006-2007 and returned to active service. From summer 2007 through 2012 was a regular at tall ship events in England, Europe, up and down both coasts of the USA, and the Galapagos Islands. Lost in Hurricane Sandy October 29, 2012.

Ship's website: http://www.tallshipbounty.org/

More information available from US FCC via Universal Licensing System and Coast Guard Vessel Documentation Center.

Last reported at 2012-Oct-29 11:33 UTC. Time now 2014-Apr-24 14:02 UTC.
Position N 33°54' W 073°50'.
Warning: this ship's position is years out of date!

Length 55 m; draft 3.6 m.

Type: Sailing vessel. MMSI: 369191000.

NotesDate/timePositionNaut miles runAvg speedWind from/ knotsBaromVisibWave heightAir tempDewpointWater temp
Helicopter rescue location.2012-Oct-29 11:33N 33°54' W 073°50'35 2.0
2012-Oct-28 18:08N 34°22' W 074°15'4710.3
2012-Oct-28 13:33N 34°38' W 073°21'5819.1
2012-Oct-28 10:31N 35°19' W 072°31'47 5.9
2012-Oct-28 02:37N 35°51' W 071°49'93 7.0
2012-Oct-27 13:21N 36°55' W 070°25'101 6.8
2012-Oct-26 22:32N 38°32' W 071°00'35 6.9
2012-Oct-26 17:31N 39°06' W 071°11'8 7.6
2012-Oct-26 16:27N 39°14' W 071°12'7 8.2
2012-Oct-26 15:39N 39°20' W 071°10'1 9.7
2012-Oct-26 15:33N 39°21' W 071°11'8 8.1
2012-Oct-26 14:32N 39°29' W 071°12'8 8.4
2012-Oct-26 13:33N 39°37' W 071°15'854.0
2012-Oct-26 13:24N 39°45' W 071°18'0 0.3
2012-Oct-26 12:34N 39°45' W 071°18'8 7.8
2012-Oct-26 11:33N 39°52' W 071°21'7 7.7
2012-Oct-26 10:36N 39°59' W 071°23'8 7.4
2012-Oct-26 09:32N 40°07' W 071°25'7 6.8
2012-Oct-26 08:33N 40°13' W 071°28'7 6.9
2012-Oct-26 07:33N 40°20' W 071°31'7 6.9
2012-Oct-26 06:33N 40°26' W 071°34'7 6.9
2012-Oct-26 05:33N 40°33' W 071°37'7 6.9
2012-Oct-26 04:35N 40°39' W 071°40'7 7.1
2012-Oct-26 03:33N 40°46' W 071°43'7 7.3
2012-Oct-26 02:34N 40°53' W 071°46'15 7.5
2012-Oct-26 00:33N 41°07' W 071°53'7 7.1
2012-Oct-25 23:33N 41°12' W 072°00'7 6.7
2012-Oct-25 22:33N 41°18' W 072°04'4 3.7
2012-Oct-25 21:33N 41°21' W 072°05'0 0.0
2012-Oct-25 20:28N 41°21' W 072°05'0 0.0
2012-Oct-25 19:28N 41°21' W 072°05'4 4.0
2012-Oct-25 18:33N 41°18' W 072°04'2 1.6
2012-Oct-25 17:33N 41°16' W 072°03'2 1.7
2012-Oct-25 16:33N 41°17' W 072°05'4 3.8
2012-Oct-25 15:31N 41°21' W 072°05'0 0.0
2012-Oct-25 14:32N 41°21' W 072°05'0 0.0
2012-Oct-25 13:34N 41°21' W 072°05'0 0.0
2012-Oct-25 12:31N 41°21' W 072°05'0 0.0
2012-Oct-25 11:32N 41°21' W 072°05'0 0.0
2012-Oct-25 10:38N 41°21' W 072°05'0 0.0
2012-Oct-25 09:33N 41°21' W 072°05'0 0.0
2012-Oct-25 08:33N 41°21' W 072°05'0 0.0
2012-Oct-25 07:31N 41°21' W 072°05'0 0.0
2012-Oct-25 06:32N 41°21' W 072°05'0 0.0
2012-Oct-25 05:32N 41°21' W 072°05'0 0.0
2012-Oct-25 04:34N 41°21' W 072°05'0 0.0
2012-Oct-25 03:33N 41°21' W 072°05'0 0.0
2012-Oct-25 02:33N 41°21' W 072°05'0 0.0
2012-Oct-25 01:33N 41°21' W 072°05'0 0.0
2012-Oct-25 00:32N 41°21' W 072°05'0 0.0
2012-Oct-24 23:32N 41°21' W 072°05'0 0.0
2012-Oct-24 22:32N 41°21' W 072°05'0 0.0
2012-Oct-24 21:31N 41°21' W 072°05'0 0.0
2012-Oct-24 20:31N 41°21' W 072°05'0 0.0
2012-Oct-24 19:31N 41°21' W 072°05'0 0.0
2012-Oct-24 18:33N 41°21' W 072°05'0 0.0
2012-Oct-24 17:33N 41°21' W 072°05'0 0.0
2012-Oct-24 16:32N 41°21' W 072°05'0 0.0
2012-Oct-24 15:32N 41°21' W 072°05'0 0.0
2012-Oct-24 14:31N 41°21' W 072°05'0 0.0
2012-Oct-24 13:31N 41°21' W 072°05'0 0.0
2012-Oct-24 12:32N 41°21' W 072°05'0 0.0
2012-Oct-24 11:32N 41°21' W 072°05'0 0.0
2012-Oct-24 10:38N 41°21' W 072°05'0 0.0
2012-Oct-24 09:32N 41°21' W 072°05'0 0.0
2012-Oct-24 08:32N 41°21' W 072°05'0 0.0
2012-Oct-24 07:32N 41°21' W 072°05'0 0.0
2012-Oct-24 06:31N 41°21' W 072°05'0 0.0
2012-Oct-24 05:31N 41°21' W 072°05'0 0.0
2012-Oct-24 04:34N 41°21' W 072°05'0 0.0
2012-Oct-24 03:33N 41°21' W 072°05'0 0.0
2012-Oct-24 02:33N 41°21' W 072°05'0 0.0
2012-Oct-24 01:33N 41°21' W 072°05'0 0.0
2012-Oct-24 00:33N 41°21' W 072°05'0 0.0
2012-Oct-23 23:33N 41°21' W 072°05'0 0.0
2012-Oct-23 22:31N 41°21' W 072°05'0 0.0
2012-Oct-23 21:31N 41°21' W 072°05'0 0.0
2012-Oct-23 20:33N 41°21' W 072°05'0 0.0
2012-Oct-23 19:33N 41°21' W 072°05'0 0.0
2012-Oct-23 18:33N 41°21' W 072°05'0 0.0
2012-Oct-23 17:32N 41°21' W 072°05'0 0.0
2012-Oct-23 16:29N 41°21' W 072°05'0 0.0
2012-Oct-23 15:32N 41°21' W 072°05'0 0.0
2012-Oct-23 14:31N 41°21' W 072°05'0 0.0
2012-Oct-23 13:33N 41°21' W 072°05'0 0.0
2012-Oct-23 12:26N 41°21' W 072°05'0 1.3
2012-Oct-23 12:06N 41°21' W 072°05'2 3.9
2012-Oct-23 11:33N 41°19' W 072°05'2 1.9
2012-Oct-23 10:37N 41°17' W 072°04'0 0.0
2012-Oct-23 09:32N 41°17' W 072°04'0 0.0
2012-Oct-23 08:32N 41°17' W 072°04'0 0.0
2012-Oct-23 07:32N 41°17' W 072°04'0 0.0
2012-Oct-23 06:33N 41°17' W 072°04'0 0.0
2012-Oct-23 05:33N 41°17' W 072°04'0 0.0
2012-Oct-23 04:35N 41°17' W 072°04'0 0.0
2012-Oct-23 03:32N 41°17' W 072°04'0 0.0
2012-Oct-23 02:33N 41°17' W 072°04'0 0.0
2012-Oct-23 01:33N 41°17' W 072°04'4 3.8
2012-Oct-23 00:33N 41°14' W 072°01'6 6.0
2012-Oct-22 23:33N 41°15' W 071°53'7 7.0
2012-Oct-22 22:34N 41°16' W 071°44'7 6.8
2012-Oct-22 21:34N 41°18' W 071°35'7 6.6
2012-Oct-22 20:33N 41°19' W 071°26'6 6.2
2012-Oct-22 19:33N 41°21' W 071°19'7 6.1
2012-Oct-22 18:28N 41°24' W 071°11'16 4.8
2012-Oct-22 15:10N 41°30' W 070°51'20 6.3
2012-Oct-22 12:04N 41°45' W 070°34'  

Dump ship's entire track history

sailing weather and tide predictions

Bounty — WDD9114 — position and weather